{"data":{"norad_id":57826,"epoch":"2026-05-24T18:33:52.427808Z","epoch_age_seconds":95375,"freshness":"FRESH","line1":"1 57826U 23138U   26144.77352347  .00001546  00000+0  65699-4 0  9994","line2":"2 57826  43.0039 164.5560 0001924 281.1968  78.8667 15.27578068150363","mean_motion":15.27578068,"eccentricity":0.0001924,"inclination_deg":43.0039,"raan_deg":164.556,"arg_perigee_deg":281.1968,"mean_anomaly_deg":78.8667,"bstar":6.5699e-5,"rev_number":15036,"period_min":94.266867937253,"perigee_km":481.73478783085,"apogee_km":484.37497446672,"semimajor_km":6861.1918811488,"source":"CELESTRAK","updated_at":"2026-05-25T13:38:18.412143Z"}}